When you browse on this site, cookies collect data to enhance your experience and personalize the content and advertising you see.
Visit our Privacy Policy to learn more. By continuing to use the site, you agree to this use of cookies and data.
  • In United Kingdom
  • List of Countries
  • For 7 days
  • Water Temperature
  • Satellite Maps
  • Weather Map
  • Weather Widgets
  • user-avatar
    Login

    Hourly Weather Gilazi

    Today, 20 March, Wednesday

    Time Temperature Precipitation Wind Pressure Humidity
    00:00 +4°C° 0.9 mm 7 mps 767 mmHg 87%
    01:00 +4°C° 0.9 mm 7 mps 767 mmHg 87%
    02:00 +4°C° 0.9 mm 7 mps 767 mmHg 87%
    03:00 +5°C° 0 mm 5 mps 766 mmHg 87%
    04:00 +4°C° 1.4 mm 6 mps 766 mmHg 88%
    05:00 +4°C° 1.4 mm 6 mps 766 mmHg 88%
    06:00 +4°C° 1.4 mm 6 mps 766 mmHg 89%
    07:00 +4°C° 1.4 mm 6 mps 766 mmHg 89%
    08:00 +4°C° 1.4 mm 6 mps 766 mmHg 89%
    09:00 +4°C° 0 mm 6 mps 766 mmHg 89%
    10:00 +4°C° 0.5 mm 6 mps 766 mmHg 88%
    11:00 +5°C° 0.5 mm 6 mps 766 mmHg 86%
    12:00 +5°C° 0.5 mm 6 mps 766 mmHg 85%
    13:00 +5°C° 0.1 mm 6 mps 766 mmHg 84%
    14:00 +7°C° 0.1 mm 6 mps 766 mmHg 83%
    15:00 +7°C° 0.1 mm 5 mps 766 mmHg 82%
    16:00 +6°C° 0 mm 5 mps 766 mmHg 83%
    17:00 +6°C° 0 mm 5 mps 766 mmHg 85%
    18:00 +6°C° 0 mm 4 mps 766 mmHg 87%
    19:00 +6°C° 0.1 mm 4 mps 766 mmHg 87%
    20:00 +6°C° 0.1 mm 4 mps 766 mmHg 87%
    21:00 +7°C° 0.1 mm 3 mps 766 mmHg 87%
    22:00 +7°C° 0.1 mm 3 mps 766 mmHg 87%
    23:00 +7°C° 0.1 mm 3 mps 766 mmHg 87%

    Tomorrow, 21 March, Thursday

    Time Temperature Precipitation Wind Pressure Humidity
    00:00 +7°C° 0.1 mm 2 mps 766 mmHg 87%
    01:00 +7°C° 0 mm 2 mps 766 mmHg 87%
    02:00 +7°C° 0 mm 2 mps 766 mmHg 88%
    03:00 +8°C° 0 mm 1 mps 766 mmHg 88%
    04:00 +8°C° 0 mm 1 mps 766 mmHg 89%
    05:00 +7°C° 0 mm 1 mps 766 mmHg 89%
    06:00 +7°C° 0 mm 1 mps 766 mmHg 90%
    07:00 +8°C° 0 mm 1 mps 766 mmHg 87%
    08:00 +9°C° 0 mm 1 mps 766 mmHg 85%
    09:00 +9°C° 0 mm 1 mps 766 mmHg 82%
    10:00 +10°C° 0 mm 1 mps 766 mmHg 80%
    11:00 +10°C° 0 mm 1 mps 766 mmHg 79%
    12:00 +10°C° 0 mm 2 mps 766 mmHg 78%
    13:00 +10°C° 0 mm 2 mps 766 mmHg 78%
    14:00 +10°C° 0 mm 2 mps 765 mmHg 79%
    15:00 +10°C° 0 mm 2 mps 765 mmHg 80%
    16:00 +10°C° 0 mm 2 mps 765 mmHg 82%
    17:00 +9°C° 0 mm 2 mps 765 mmHg 83%
    18:00 +10°C° 0 mm 1 mps 765 mmHg 85%
    19:00 +10°C° 0 mm 1 mps 765 mmHg 86%
    20:00 +10°C° 0 mm 1 mps 766 mmHg 86%
    21:00 +10°C° 0 mm 1 mps 766 mmHg 87%
    22:00 +10°C° 0 mm 1 mps 766 mmHg 88%
    23:00 +10°C° 0 mm 1 mps 765 mmHg 88%

    Day after tomorrow, 22 March, Friday

    Time Temperature Precipitation Wind Pressure Humidity
    00:00 +10°C° 0 mm 1 mps 765 mmHg 88%
    01:00 +10°C° 0 mm 1 mps 765 mmHg 89%
    02:00 +9°C° 0 mm 1 mps 765 mmHg 90%
    03:00 +9°C° 0 mm 1 mps 765 mmHg 90%
    04:00 +9°C° 0 mm 1 mps 765 mmHg 89%
    05:00 +9°C° 0 mm 1 mps 765 mmHg 88%
    06:00 +9°C° 0 mm 1 mps 765 mmHg 86%
    07:00 +10°C° 0 mm 1 mps 765 mmHg 82%
    08:00 +11°C° 0 mm 1 mps 765 mmHg 78%
    09:00 +11°C° 0 mm 0 mps 765 mmHg 73%
    10:00 +12°C° 0 mm 1 mps 765 mmHg 71%
    11:00 +13°C° 0 mm 2 mps 765 mmHg 68%
    12:00 +14°C° 0 mm 2 mps 764 mmHg 65%
    13:00 +14°C° 0 mm 2 mps 764 mmHg 67%
    14:00 +12°C° 0 mm 3 mps 764 mmHg 68%
    15:00 +12°C° 0 mm 3 mps 763 mmHg 70%
    16:00 +12°C° 0.1 mm 3 mps 763 mmHg 73%
    17:00 +11°C° 0.1 mm 3 mps 763 mmHg 76%
    18:00 +10°C° 0.1 mm 3 mps 763 mmHg 80%
    19:00 +10°C° 0.3 mm 3 mps 764 mmHg 81%
    20:00 +10°C° 0.3 mm 4 mps 765 mmHg 83%
    21:00 +8°C° 0.3 mm 4 mps 765 mmHg 84%
    22:00 +8°C° 0.7 mm 6 mps 765 mmHg 84%
    23:00 +6°C° 0.7 mm 7 mps 765 mmHg 85%

    23 March, Saturday

    Time Temperature Precipitation Wind Pressure Humidity
    00:00 +6°C° 0.7 mm 9 mps 765 mmHg 85%
    01:00 +5°C° 0.2 mm 9 mps 765 mmHg 82%
    02:00 +5°C° 0.2 mm 8 mps 766 mmHg 79%
    03:00 +5°C° 0.2 mm 7 mps 766 mmHg 76%
    04:00 +5°C° 0.2 mm 6 mps 766 mmHg 75%
    05:00 +6°C° 0.2 mm 5 mps 766 mmHg 75%
    06:00 +6°C° 0.2 mm 4 mps 766 mmHg 74%
    07:00 +8°C° 0 mm 3 mps 766 mmHg 71%
    08:00 +8°C° 0 mm 2 mps 766 mmHg 68%
    09:00 +10°C° 0 mm 1 mps 766 mmHg 65%
    10:00 +10°C° 0 mm 2 mps 766 mmHg 64%
    11:00 +10°C° 0 mm 3 mps 765 mmHg 63%
    12:00 +11°C° 0 mm 4 mps 765 mmHg 63%
    13:00 +10°C° 0 mm 5 mps 764 mmHg 58%
    14:00 +12°C° 0 mm 5 mps 763 mmHg 54%
    15:00 +13°C° 0 mm 6 mps 762 mmHg 49%
    16:00 +11°C° 0 mm 7 mps 762 mmHg 50%
    17:00 +11°C° 0 mm 7 mps 761 mmHg 51%
    18:00 +10°C° 0 mm 7 mps 761 mmHg 53%
    19:00 +10°C° 0 mm 7 mps 761 mmHg 55%
    20:00 +9°C° 0 mm 7 mps 761 mmHg 58%
    21:00 +9°C° 0 mm 8 mps 761 mmHg 60%
    22:00 +7°C° 0 mm 8 mps 761 mmHg 63%
    23:00 +7°C° 0 mm 8 mps 761 mmHg 66%

    24 March, Sunday

    Time Temperature Precipitation Wind Pressure Humidity
    00:00 +7°C° 0 mm 9 mps 761 mmHg 69%
    01:00 +6°C° 0 mm 9 mps 761 mmHg 73%
    02:00 +6°C° 0 mm 9 mps 761 mmHg 76%
    03:00 +5°C° 0 mm 9 mps 761 mmHg 79%
    04:00 +5°C° 0 mm 9 mps 762 mmHg 77%
    05:00 +5°C° 0 mm 8 mps 762 mmHg 75%
    06:00 +5°C° 0 mm 8 mps 763 mmHg 73%
    07:00 +6°C° 0 mm 8 mps 763 mmHg 67%
    08:00 +6°C° 0 mm 8 mps 764 mmHg 61%
    09:00 +7°C° 0 mm 8 mps 764 mmHg 56%
    10:00 +8°C° 0 mm 7 mps 764 mmHg 58%
    11:00 +8°C° 0 mm 6 mps 764 mmHg 60%
    12:00 +8°C° 0 mm 5 mps 764 mmHg 63%
    13:00 +8°C° 0 mm 4 mps 764 mmHg 62%
    14:00 +8°C° 0 mm 4 mps 764 mmHg 60%
    15:00 +10°C° 0 mm 3 mps 763 mmHg 59%
    16:00 +9°C° 0 mm 3 mps 763 mmHg 60%
    17:00 +8°C° 0 mm 4 mps 763 mmHg 62%
    18:00 +8°C° 0 mm 4 mps 763 mmHg 63%
    19:00 +8°C° 0 mm 5 mps 764 mmHg 65%
    20:00 +7°C° 0 mm 6 mps 764 mmHg 67%
    21:00 +7°C° 0 mm 6 mps 764 mmHg 69%
    22:00 +7°C° 0 mm 6 mps 763 mmHg 68%
    23:00 +7°C° 0 mm 6 mps 763 mmHg 67%

    25 March, Monday

    Time Temperature Precipitation Wind Pressure Humidity
    00:00 +7°C° 0 mm 6 mps 763 mmHg 66%
    01:00 +7°C° 0 mm 5 mps 762 mmHg 65%
    02:00 +7°C° 0 mm 5 mps 762 mmHg 65%
    03:00 +7°C° 0 mm 4 mps 762 mmHg 65%
    04:00 +7°C° 0 mm 4 mps 762 mmHg 64%
    05:00 +7°C° 0 mm 4 mps 762 mmHg 63%
    06:00 +7°C° 0 mm 4 mps 763 mmHg 62%
    07:00 +8°C° 0 mm 4 mps 763 mmHg 62%
    08:00 +10°C° 0 mm 3 mps 763 mmHg 61%
    09:00 +11°C° 0 mm 3 mps 763 mmHg 61%
    10:00 +11°C° 0 mm 3 mps 764 mmHg 63%
    11:00 +11°C° 0 mm 3 mps 764 mmHg 65%
    12:00 +11°C° 0 mm 3 mps 764 mmHg 67%
    13:00 +11°C° 0 mm 3 mps 764 mmHg 68%
    14:00 +11°C° 0 mm 3 mps 764 mmHg 69%
    15:00 +11°C° 0 mm 3 mps 764 mmHg 70%
    16:00 +10°C° 0 mm 2 mps 764 mmHg 70%
    17:00 +10°C° 0 mm 2 mps 765 mmHg 70%
    18:00 +10°C° 0 mm 1 mps 765 mmHg 71%
    19:00 +10°C° 0 mm 1 mps 766 mmHg 71%
    20:00 +10°C° 0 mm 1 mps 766 mmHg 72%
    21:00 +10°C° 0 mm 1 mps 766 mmHg 73%
    22:00 +10°C° 0 mm 1 mps 766 mmHg 71%
    23:00 +9°C° 0 mm 2 mps 767 mmHg 70%
    Show more